Regional Weather Roundup
Issued by NWS

Home | Current Version | Previous Version | Graphics & Text | Print | Product List | Glossary Off
Versions: 1 2 3 4 5 6 7 8 9 10 11 12 13 14 15 16 17 18 19 20 21 22 23 24 25 26 27 28 29 30 31 32 33 34 35 36 37 38 39 40 41 42 43 44 45 46 47 48 49 50

000
ASUS43 KDTX 291101
RWRMI
MICHIGAN HOURLY REGIONAL WEATHER ROUNDUP
NATIONAL WEATHER SERVICE DETROIT/PONTIAC MI
600 AM EST THU JAN 29 2015

NOTE: "FAIR" INDICATES FEW OR NO CLOUDS BELOW 12,000 FEET WITH NO
SIGNIFICANT WEATHER AND/OR OBSTRUCTION TO VISIBILITY.

MIZ047>049-052>055-059>063-066>070-074>076-081>083-291200-
SOUTHEAST LOWER MICHIGAN

CITY           SKY/WX    TMP DP  RH WIND       PRES   REMARKS
ADRIAN         CLOUDY    28  21  75 S9        29.84F WCI  19
ALMA           CLOUDY    27  24  88 SE7       29.80F WCI  20
ANN ARBOR      CLOUDY    28  20  71 SE7       29.86F WCI  21
BAD AXE        LGT SNOW  25  20  79 S16G25    29.87F WCI  13
CARO           LGT SNOW  25  23  91 SE7       29.86F WCI  17
DETROIT CITY   FLURRIES  30  18  60 SE8       29.90F WCI  22
DETROIT        LGTSLEET  28  19  69 SE8       29.90F WCI  20
FLINT          CLOUDY    30  19  63 S14G22    29.84F WCI  19
GROSSE ILE     MIX PCPN  28  19  69 SE9       29.89F WCI  20
HILLSDALE      MOCLDY    28  24  85 SE9       29.78F WCI  19
HOWELL         FLURRIES  26  22  84 SE13      29.82F WCI  15

CITY           SKY/WX    TMP DP  RH WIND       PRES   REMARKS
JACKSON        MIX PCPN  29  22  75 S13       29.79F WCI  19
LAMBERTVILLE   FLURRIES  32  21  64 S6        29.87F WCI  26
LANSING        CLOUDY    29  22  75 SE12      29.80F WCI  19
LAPEER         FLURRIES  26  18  70 SE8       29.86F WCI  18
MASON          FLURRIES  29  23  78 S13       29.80F WCI  18
MONROE         CLOUDY    28  21  74 SE5       29.87F WCI  23
MT. CLEMENS    CLOUDY    27  19  71 SE14      29.90F WCI  16
PONTIAC        LGTSLEET  26  18  71 SE8       29.86F WCI  18
PORT HOPE        N/A     27  16  63 S14G23    29.85F WCI  16
PORT HURON     CLOUDY    28  16  59 S13G18    29.93F WCI  18
TRI CITIES     CLOUDY    27  23  85 SE10      29.83F WCI  17
TROY           CLOUDY    30  17  58 SE3       29.91F
SAGINAW HB     LGT SNOW  28  27  93 SE12      29.83F WCI  18
$$
MIZ043>046-050>051-056>058-064>065-071>073-077>080-291200-
SOUTHWEST LOWER MICHIGAN

CITY           SKY/WX    TMP DP  RH WIND       PRES   REMARKS
BATTLE CREEK   CLOUDY    32  23  69 S12       29.76F WCI  23
BENTON HARBOR  CLOUDY    33  25  72 SE7       29.72F WCI  27
BIG RAPIDS     CLOUDY    27  23  85 SE6       29.76F WCI  20
COLDWATER      CLOUDY    31  23  74 S9        29.77F WCI  22
FREMONT        LGT SNOW  27  23  83 E5        29.76F WCI  22
HOLLAND        CLOUDY    32  26  78 E6        29.75F WCI  26
GRAND RAPIDS   CLOUDY    30  25  81 E7        29.76F WCI  23
IONIA          CLOUDY    30  26  83 SE8       29.77F WCI  23
KALAMAZOO      CLOUDY    32  24  72 S9        29.75F WCI  24
LUDINGTON      CLOUDY    28  24  86 SE5       29.76F WCI  23
MARSHALL       CLOUDY    31  23  73 S8        29.77F WCI  23
MOUNT PLEASANT CLOUDY    26  23  89 SE6       29.80F WCI  19
MUSKEGON       CLOUDY    30  24  78 E8        29.76F WCI  22
SOUTH HAVEN    CLOUDY    33  27  77 SE3       29.72F
$$
MIZ016>042-291200-
NORTHERN LOWER MICHIGAN

CITY           SKY/WX    TMP DP  RH WIND       PRES   REMARKS
ALPENA         LGT SNOW  25  16  68 S12       29.84F WCI  14
BEAVER ISLAND  CLOUDY    29  18  64 CALM      29.78F
BELLAIRE       LGT SNOW  25  22  88 S5        29.81F WCI  20
CADILLAC       FLURRIES  22  20  91 SE5       29.75F WCI  16
CHARLEVOIX     FLURRIES  28  18  67 S7G22     29.82F WCI  20
FRANKFORT      FLURRIES  27  24  89 SE5       29.77F WCI  21
GAYLORD        HVY SNOW  21  20  96 S8        29.77F VSB 1/4 WCI  11
GRAYLING       LGT SNOW  23  22  94 SE5       29.79F WCI  17
HARBOR SPRINGS FLURRIES  28  17  64 SW8       29.79F WCI  19
HOUGHTON LAKE  SNOW      22  19  89 SE6       29.79F VSB 1/2 WCI  14
MANISTEE       CLOUDY    27  21  80 E6        29.77F WCI  20
OSCODA         LGT SNOW  26  20  79 S10G21    29.85F WCI  15
PELLSTON       LGT SNOW  27  18  69 S3        29.80F
ROGERS CITY    CLOUDY    25  19  80 S10G17    29.82F WCI  14
TRAVERSE CITY  LGT SNOW  25  22  88 S3        29.78F FOG
$$
MIZ007>008-015-291200-
EASTERN UPPER MICHIGAN

CITY           SKY/WX    TMP DP  RH WIND       PRES   REMARKS
KINROSS        CLOUDY    25  19  80 SE7       29.78F WCI  17
MACKINAC ISLAN CLOUDY    28  14  56 S6        29.78F WCI  21
NEWBERRY       LGT SNOW  22  21  96 CALM      29.77F
S. S. MARIE    LGT SNOW  26  18  71 SE5       29.80F WCI  20
MUNISING         N/A     28  25  88 S5        29.76F WCI  23
$$
MIZ004>006-011>014-085-291200-
CENTRAL UPPER MICHIGAN

CITY           SKY/WX    TMP DP  RH WIND       PRES   REMARKS
MANISTIQUE     LGT SNOW  30  28  91 S9        29.76F WCI  21
ESCANABA       CLOUDY    28  27  93 CALM      29.77S VSB 1
MENOMINEE      CLOUDY    30  25  80 NW3       29.76S
SAWYER-GWINN   CLOUDY    26  24  93 W3        29.73F
$$
MIZ001>003-009>011-084-291200-
WESTERN UPPER MICHIGAN

CITY           SKY/WX    TMP DP  RH WIND       PRES   REMARKS
IRON MOUNTAIN  CLOUDY    27  25  92 NW5       29.74S FOG     WCI  22
HOUGHTON       CLOUDY    29  25  85 NW16G24   29.74S WCI  17
COPPER HARBOR    N/A     32  27  81 N20       29.74F WCI  20
IRONWOOD       CLOUDY    28  27  93 NW14G21   29.79R WCI  17
$$

ABBREVIATIONS USED IN REMARKS
   TC - TEMPERATURE IN CELSIUS
  WCI - WIND CHILL INDEX
   HX - HEAT INDEX
  VSB - VISIBILITY



USA.gov is the U.S. government's official web portal to all federal, state and local government web resources and services.